Weather History for KMOP - November, 2013

Change the Weather History Date:

Saturday, November 16, 2013

  Actual Average (KMBS) Record (KMBS)
Temperature  
Mean Temperature 42 °F 38 °F  
Max Temperature 55 °F 46 °F - ()
Min Temperature 30 °F 31 °F - ()
Degree Days  
Heating Degree Days 22    
Month to date heating degree days  
Since 1 July heating degree days  
Cooling Degree Days 0    
Month to date cooling degree days  
Year to date cooling degree days  
Moisture  
Dew Point 39 °F    
Average Humidity 80    
Maximum Humidity 92    
Minimum Humidity 68    
Precipitation  
Precipitation 0.24 in 0.09 in - ()
Month to date precipitation 1.50  
Year to date precipitation 28.48  
Snow  
Snow 0.00 in - - ()
Month to date snowfall  
Since 1 July snowfall  
Since 1 September snowfall  
Snow Depth -    
Sea Level Pressure  
Sea Level Pressure 29.89 in    
Wind  
Wind Speed 5 mph (SSE)    
Max Wind Speed 16 mph    
Max Gust Speed 23 mph    
Visibility 9 miles    
Events Rain    
T = Trace of Precipitation, MM = Missing Value Source: NWS Daily Summary

Daily Weather History Graph

Daily Weather History Graph

Search for Another Location

Airport or City:

Trip Planner

Search our weather history database for the weather conditions in past years. The results will help you decide how hot, cold, wet, or windy it might be!

Date:

Astronomy

Nov. 16, 2013 Rise Set
Actual Time 7:34 AM EST 5:12 PM EST
Civil Twilight 7:03 AM EST 5:43 PM EST
Nautical Twilight 6:28 AM EST 6:18 PM EST
Astronomical Twilight 5:54 AM EST 6:52 PM EST
Moon 4:48 PM EST (11/16) 6:28 AM EST (11/16)
Length of Visible Light 10h 40m
Length of Day
9h 38m
Waxing Gibbous, 99% of the Moon is Illuminated
Nov 16
Waxing Gibbous
Nov 17
Full
Nov 25
Last Quarter
Dec 2
New
Dec 9
First Quarter

Hourly Weather History & Observations

Time (EST) Temp. Windchill Dew Point Humidity Pressure Visibility Wind Dir Wind Speed Gust Speed Precip Events Conditions
12:14 AM 36.1 °F 33.5 °F 27.5 °F 71% 30.00 in 10.0 mi SE 3.5 mph - N/A   Clear
12:35 AM 34.7 °F - 27.9 °F 76% 29.99 in 10.0 mi Calm Calm - N/A   Clear
12:55 AM 34.9 °F 30.8 °F 27.7 °F 75% 29.99 in 10.0 mi SE 4.6 mph - N/A   Clear
1:14 AM 36.0 °F 33.3 °F 28.0 °F 73% 29.99 in 10.0 mi SSE 3.5 mph - N/A   Clear
1:35 AM 36.1 °F - 27.9 °F 72% 29.99 in 10.0 mi Calm Calm - N/A   Clear
1:55 AM 32.2 °F 28.9 °F 27.0 °F 81% 29.98 in 10.0 mi ESE 3.5 mph - N/A   Clear
2:14 AM 32.5 °F - 27.1 °F 80% 29.99 in 10.0 mi Calm Calm - N/A   Clear
2:35 AM 32.0 °F - 28.2 °F 86% 29.99 in 10.0 mi Calm Calm - N/A   Clear
2:55 AM 30.4 °F - 26.6 °F 86% 29.99 in 10.0 mi Calm Calm - N/A   Clear
3:14 AM 30.9 °F - 27.3 °F 86% 29.99 in 10.0 mi Calm Calm - N/A   Clear
3:35 AM 30.9 °F - 26.8 °F 85% 30.00 in 10.0 mi Calm Calm - N/A   Clear
3:55 AM 31.1 °F - 27.5 °F 87% 29.99 in 10.0 mi Calm Calm - N/A   Clear
4:14 AM 30.2 °F - 26.6 °F 86% 30.00 in 10.0 mi Calm Calm - N/A   Clear
4:35 AM 32.4 °F - 28.4 °F 85% 30.01 in 10.0 mi Calm Calm - N/A   Clear
4:55 AM 32.0 °F - 27.3 °F 83% 30.01 in 10.0 mi Calm Calm - N/A   Clear
5:14 AM 31.8 °F - 27.3 °F 83% 30.02 in 10.0 mi Calm Calm - N/A   Clear
5:35 AM 31.5 °F - 27.1 °F 84% 30.02 in 10.0 mi Calm Calm - N/A   Clear
5:55 AM 32.0 °F - 27.9 °F 85% 30.02 in 10.0 mi Calm Calm - N/A   Clear
6:14 AM 31.5 °F - 26.8 °F 83% 30.01 in 10.0 mi Calm Calm - N/A   Scattered Clouds
6:35 AM 30.9 °F - 27.5 °F 87% 30.01 in 10.0 mi Calm Calm - N/A   Clear
6:55 AM 31.1 °F - 27.1 °F 85% 30.01 in 10.0 mi Calm Calm - N/A   Clear
7:14 AM 30.6 °F - 27.0 °F 86% 30.01 in 10.0 mi Calm Calm - N/A   Clear
7:35 AM 32.0 °F - 28.9 °F 88% 30.01 in 10.0 mi Calm Calm - N/A   Clear
7:55 AM 34.3 °F 30.2 °F 30.7 °F 87% 30.01 in 10.0 mi SE 4.6 mph - N/A   Mostly Cloudy
8:15 AM 36.1 °F 33.5 °F 31.8 °F 84% 30.00 in 10.0 mi SSE 3.5 mph - N/A   Overcast
8:35 AM 37.4 °F 33.8 °F 32.5 °F 83% 30.00 in 10.0 mi SE 4.6 mph - N/A   Mostly Cloudy
8:55 AM 38.3 °F 32.5 °F 33.8 °F 84% 29.98 in 10.0 mi SE 8.1 mph - N/A   Overcast
9:15 AM 40.1 °F 34.1 °F 35.8 °F 85% 29.99 in 10.0 mi SSE 9.2 mph - N/A   Mostly Cloudy
9:35 AM 40.5 °F 34.1 °F 36.5 °F 86% 29.98 in 7.0 mi SSE 10.4 mph - N/A   Overcast
9:55 AM 41.9 °F 35.4 °F 38.1 °F 86% 29.97 in 7.0 mi SSE 11.5 mph - N/A   Overcast
10:15 AM 42.3 °F 36.8 °F 38.8 °F 88% 29.97 in 5.0 mi SE 9.2 mph - N/A   Overcast
10:35 AM 43.3 °F 37.7 °F 39.9 °F 88% 29.97 in 5.0 mi SSE 10.4 mph 16.1 mph N/A   Overcast
10:55 AM 44.4 °F 40.5 °F 40.6 °F 87% 29.96 in 5.0 mi SE 6.9 mph - N/A   Overcast
11:15 AM 45.5 °F 41.8 °F 41.4 °F 85% 29.96 in 7.0 mi SSE 6.9 mph - N/A   Overcast
11:35 AM 46.9 °F - 42.1 °F 83% 29.94 in 7.0 mi SSE 10.4 mph 16.1 mph N/A   Overcast
11:54 AM 48.4 °F - 42.8 °F 81% 29.93 in 7.0 mi SSE 10.4 mph 16.1 mph N/A   Overcast
12:15 PM 49.8 °F - 43.2 °F 78% 29.91 in 10.0 mi SSE 9.2 mph 17.3 mph N/A   Overcast
12:35 PM 50.5 °F - 43.5 °F 77% 29.90 in 10.0 mi SSE 9.2 mph - N/A   Overcast
12:54 PM 51.8 °F - 43.7 °F 74% 29.89 in 10.0 mi SE 11.5 mph 17.3 mph N/A   Overcast
1:15 PM 52.9 °F - 43.9 °F 71% 29.87 in 10.0 mi SSE 11.5 mph 17.3 mph N/A   Overcast
1:35 PM 53.2 °F - 44.1 °F 71% 29.86 in 10.0 mi SSE 10.4 mph - N/A   Overcast
1:54 PM 54.0 °F - 44.2 °F 70% 29.86 in 10.0 mi SE 10.4 mph 17.3 mph N/A   Overcast
2:15 PM 54.5 °F - 44.6 °F 69% 29.84 in 10.0 mi SE 11.5 mph 16.1 mph N/A   Overcast
2:35 PM 54.7 °F - 44.6 °F 69% 29.83 in 10.0 mi SE 12.7 mph 16.1 mph N/A   Overcast
2:55 PM 55.0 °F - 44.8 °F 68% 29.82 in 10.0 mi SSE 8.1 mph - N/A   Overcast
3:15 PM 55.0 °F - 45.1 °F 69% 29.82 in 10.0 mi SSE 10.4 mph 16.1 mph N/A   Overcast
3:34 PM 54.9 °F - 45.1 °F 70% 29.81 in 10.0 mi SE 9.2 mph - N/A   Overcast
3:55 PM 54.7 °F - 45.3 °F 71% 29.81 in 10.0 mi SE 10.4 mph - N/A   Mostly Cloudy
4:15 PM 54.9 °F - 45.7 °F 71% 29.81 in 10.0 mi SSE 9.2 mph - N/A   Overcast
4:34 PM 54.9 °F - 45.9 °F 72% 29.81 in 10.0 mi SSE 9.2 mph - N/A   Overcast
4:55 PM 54.7 °F - 46.0 °F 73% 29.81 in 10.0 mi SSE 8.1 mph - N/A   Overcast
5:15 PM 54.5 °F - 46.0 °F 73% 29.80 in 10.0 mi SSE 10.4 mph 16.1 mph N/A   Overcast
5:34 PM 54.1 °F - 45.9 °F 74% 29.79 in 10.0 mi SSE 9.2 mph - N/A   Overcast
5:55 PM 54.1 °F - 46.0 °F 74% 29.79 in 10.0 mi SE 9.2 mph - N/A   Overcast
6:15 PM 54.0 °F - 46.0 °F 75% 29.78 in 10.0 mi SE 8.1 mph - N/A   Overcast
6:34 PM 54.0 °F - 46.4 °F 76% 29.77 in 10.0 mi SE 9.2 mph - N/A   Overcast
6:55 PM 54.3 °F - 46.6 °F 75% 29.77 in 10.0 mi SSE 9.2 mph - N/A   Overcast
7:15 PM 54.5 °F - 46.8 °F 75% 29.77 in 10.0 mi SE 9.2 mph 16.1 mph N/A   Overcast
7:34 PM 54.9 °F - 46.9 °F 75% 29.76 in 10.0 mi SSE 12.7 mph 18.4 mph N/A   Overcast
7:55 PM 55.4 °F - 47.3 °F 74% 29.76 in 10.0 mi South 15.0 mph 23.0 mph N/A   Overcast
8:15 PM 54.5 °F - 47.3 °F 77% 29.76 in 10.0 mi South 11.5 mph 17.3 mph N/A Rain Light Rain
8:34 PM 54.5 °F - 47.5 °F 77% 29.74 in 10.0 mi SSE 12.7 mph 21.9 mph N/A Rain Light Rain
8:55 PM 53.6 °F - 47.8 °F 81% 29.73 in 7.0 mi SSE 16.1 mph 23.0 mph N/A Rain Rain
9:15 PM 52.9 °F - 48.2 °F 84% 29.71 in 10.0 mi SE 13.8 mph 20.7 mph N/A Rain Light Rain
9:34 PM 53.2 °F - 48.2 °F 83% 29.71 in 10.0 mi SSE 13.8 mph 20.7 mph N/A   Overcast
9:55 PM 53.4 °F - 48.2 °F 82% 29.70 in 10.0 mi SSE 13.8 mph 20.7 mph N/A   Overcast
10:15 PM 53.1 °F - 48.7 °F 85% 29.70 in 7.0 mi SSE 15.0 mph 20.7 mph N/A Rain Light Rain
10:34 PM 53.2 °F - 49.1 °F 86% 29.71 in 7.0 mi South 8.1 mph 17.3 mph 0.01 in Rain Rain
10:55 PM 52.9 °F - 50.0 °F 90% 29.71 in 4.0 mi SSE 13.8 mph - 0.07 in Rain Heavy Rain
11:15 PM 52.7 °F - 50.2 °F 91% 29.69 in 4.0 mi SSE 12.7 mph 18.4 mph 0.06 in Rain Heavy Rain
11:35 PM 52.9 °F - 50.5 °F 92% 29.68 in 4.0 mi SSE 10.4 mph 18.4 mph 0.11 in Rain Heavy Rain
11:55 PM 53.1 °F - 50.9 °F 92% 29.66 in 4.0 mi SE 10.4 mph - 0.17 in Rain Rain